Regional Weather Roundup
Issued by NWS Grand Forks, ND

Home | Current Version | Previous Version | Graphics & Text | Print | Product List | Glossary On
Versions: 1 2 3 4 5 6 7 8 9 10 11 12 13 14 15 16 17 18 19 20 21 22 23 24 25 26 27 28 29 30 31 32 33 34 35 36 37 38 39 40 41 42 43 44 45 46 47 48 49 50
000
ASUS43 KFGF 280110
RWRFGF
PRAIRIE TO PINES  WEATHER ROUNDUP
NATIONAL WEATHER SERVICE EASTERN NORTH DAKOTA/GRAND FORKS ND
700 PM CST FRI FEB 27 2015

 **SATELLITE DATA USED TO AUGMENT SKY COVER AT AUTOMATED STATIONS**
 *****  WEATHER ACROSS EASTERN NORTH DAKOTA  *****

CITY           SKY/WX    TMP DP  RH WIND       PRES   REMARKS
GRAND FORKS    PTCLDY     6  -2  69 S9        30.35S WCI  -8
GRAND FRKS AFB PTCLDY     7  -2  68 S10       30.34S WCI  -8
GRAND FRKS NWS   N/A      9 N/A N/A S12         N/A  WCI  -6
DEVILS LAKE    PTCLDY     9  -2  61 S7        30.25S WCI  -3
FARGO          CLEAR     12   0  58 S9        30.39S WCI   0
WAHPETON ARPT  CLEAR      9  -2  61 S9        30.41S WCI  -5
$$

 ***** WEATHER ACROSS CENTRAL AND WESTERN NORTH DAKOTA  *****

CITY           SKY/WX    TMP DP  RH WIND       PRES   REMARKS
BISMARCK       CLEAR     13   4  67 S9        30.20S WCI   1
MINOT          PTCLDY    10   0  63 SE6       30.15S WCI   0
JAMESTOWN      CLEAR      7   0  73 S12       30.27S WCI  -8
MINOT AFB      PTCLDY     5  -1  77 SE9       30.15S WCI  -9
GARRISON         N/A     13   3  64 S7        30.15R WCI   3
WILLISTON      MOCLDY    23   5  46 SE5       30.05R WCI  17
DICKINSON      CLOUDY    20   6  55 SE10      30.02R WCI   9
HETTINGER      CLOUDY    22   7  52 SE9       30.04S WCI  12
$$

 *****  OTHER AIRPORT OBSERVATIONS IN OUR AREA  *****

CITY           SKY/WX    TMP DP  RH WIND       PRES   REMARKS
WALHALLA         N/A      9   0  66 S6        30.29S WCI  -1
GRAFTON AIRPOR NOT AVBL
VALLEY CITY AR FAIR       7   1  78 S9        30.31S WCI  -7
CANDO          FAIR       3   0  85 S8        30.24S WCI -10
CAVALIER APRT  FAIR       9   1  72 S10       30.30F WCI  -6
GWINNER        CLEAR      9   0  66 S8        30.36S WCI  -4
SHEYENNE NWR     N/A      4  -4  69 S7        29.95S WCI  -8
ROLLA          FAIR       5   0  78 S6        30.19S WCI  -6
 ***** THE ABOVE OBSERVATIONS ARE NON NWS ARE NOT QUALITY
       CONTROLLED AND MAY MIS-REPORT RAIN FOR SNOW...
$$

  *****  WEATHER ACROSS NORTHERN MINNESOTA  *****

CITY           SKY/WX    TMP DP  RH WIND       PRES   REMARKS
FLAG ISLAND    PTCLDY     9   0  66 SW13      30.28R WCI  -7
WARROAD        CLEAR      9  -2  61 CALM      30.32S
ROSEAU         CLEAR      9   1  72 SW9       30.31S WCI  -5
HALLOCK        NOT AVBL
THF RVR FALLS  CLEAR      9   0  66 SW8       30.34S WCI  -4
BAUDETTE       PTCLDY     9  -7  48 SW7       30.30R WCI  -2
WASKISH        CLEAR      9  -2  61 CALM      30.34S
CROOKSTON      PTCLDY     7   0  72 SW9       30.38S WCI  -7
STEPHEN NDAWN    N/A     10   1  67 S9          N/A  WCI  -2
GREENBUSH NDAW   N/A      7   1  78 MISG        N/A
$$
  *****  WEATHER ACROSS CENTRAL AND WEST MINNESOTA  *****

CITY           SKY/WX    TMP DP  RH WIND       PRES   REMARKS
FOSSTON        CLEAR      1  -6  71 S7        30.36R WCI -11
BEMIDJI        CLEAR     10  -5  50 SW3       30.34R
PARK RAPIDS    CLEAR      5  -7  57 SW6       30.36R WCI  -6
ELBOW LAKE     FAIR       2  -4  74 S7        30.40S WCI -10
WADENA         CLEAR      3  -4  72 S3        30.39S
DETROIT LAKES  CLEAR     10   0  61 S5        30.37S WCI   2
MOORHEAD       CLEAR     12   1  62 S6        30.40S WCI   3
FERGUS FALLS   CLEAR      7  -2  66 S7        30.44S WCI  -5
MORRIS MN      CLEAR      7  -2  66 S7        30.42S WCI  -5
STAPLES        CLEAR      7  -8  51 SW5       30.40S WCI  -2
$$
  *****  WEATHER ELSEWHERE ACROSS MINNESOTA  *****

CITY           SKY/WX    TMP DP  RH WIND       PRES   REMARKS
DULUTH         CLEAR     14  -7  38 SW9       30.36R WCI   2
INTRNTL FALLS  CLEAR      9  -9  44 SW7       30.31R WCI  -2
ELY            NOT AVBL
CLOQUET        CLEAR     12  -9  37 SW6       30.38R WCI   3
WHEATON        CLEAR      9   0  66 SE9       30.44S WCI  -5
BRAINERD       CLEAR      8  -9  45 SW8       30.40R WCI  -4
HIBBING        CLEAR     13 -11  33 W5        30.34R WCI   5
ALEXANDRIA     CLEAR      7  -4  60 S7        30.41S WCI  -5
SAINT CLOUD    CLEAR     10  -2  58 S9        30.46R WCI  -3
MINNEAPOLIS    CLEAR     11  -3  53 SW8       30.52R WCI  -1
$$

  *****  WEATHER ACROSS SOUTH DAKOTA  *****

CITY           SKY/WX    TMP DP  RH WIND       PRES   REMARKS
SIOUX FALLS    CLEAR     11   1  64 SE10      30.42S WCI  -3
BROOKINGS      NOT AVBL
WATERTOWN      CLEAR      6  -3  66 S8        30.35F WCI  -7
HURON          CLEAR     14   1  56 SE9       30.35S WCI   2
SISSETON         N/A      6  -2  69 S8        30.39S WCI  -7
ABERDEEN       CLEAR      3  -3  76 SE8       30.35S WCI -10
MITCHELL       CLEAR     17   0  47 SE10      30.38S WCI   5
PIERRE         CLEAR     18  -2  41 SE10      30.21S WCI   6
MOBRIDGE       CLEAR     15   3  59 SE16      30.18S WCI  -1
RAPID CITY     MOCLDY    20  11  68 S15       30.01S WCI   6
$$

  *****  SOME WEATHER IN NEARBY STATES *****

CITY           SKY/WX    TMP DP  RH WIND       PRES   REMARKS
GLASGOW MT     PTCLDY    16   5  62 NW7       30.04R WCI   6
GREAT FALLS MT CLOUDY    18  12  77 N9        30.04R WCI   7
CHEYENNE WY    CLOUDY    11   4  73 S15       29.84S WCI  -5
SCOTTSBLUFF NE CLOUDY    20   9  62 S14       30.00R WCI   7
OMAHA NE       PTCLDY    16   4  59 SE10      30.53R WCI   4
DES MOINES IA  FAIR      11  -3  53 S5        30.58R WCI   3
DAVENPORT IA   CLEAR      0  -9  65 CALM      30.63S
CHICAGO IL     PTCLDY     8  -5  55 SW8       30.63R WCI  -4
EAU CLAIRE WI  CLEAR      8  -4  58 SW7       30.51R WCI  -3
LA CROSSE WI   CLEAR      7  -5  57 S8        30.58R WCI  -6
$$

  *****  SOME NATIONAL WEATHER *****

CITY           SKY/WX    TMP DP  RH WIND       PRES   REMARKS
LA GUARDIA NY  PTCLDY    26   4  38 NW16      30.51R WCI  14
RALEIGH NC     PTCLDY    36  20  52 NE3       30.48R
ATLANTA GA     PTCLDY    39  21  48 NW10      30.40R
NEW ORLEANS LA PTCLDY    48  33  56 N15       30.34R
OKLAHOMA CITY  CLOUDY    19  11  70 E8        30.45R WCI   9
ALBUQUERQUE NM SNOW      24  22  91 N9        29.88F VSB 1/2 WCI  14
SALT LAKE CITY PTCLDY    42  28  57 SW6       29.70S
LOS ANGELES CA MOCLDY    60  51  72 W16       29.77S
BOISE ID       CLOUDY    49  29  46 S9        29.62F
SEATTLE WA     CLOUDY    49  44  83 N13       29.79R
$$

*** WEATHER ACROSS MANITOBA...SASKATCHEWAN AND ONTARIO ***
                ***ONTARIO***

CITY           SKY/WX    TMP DP  RH WIND       PRES   REMARKS
GERALDTON        N/A     10  -8  44 SW13      30.17R WCI  -5
THUNDER BAY    PTCLDY    12  -8  40 SW9       30.33R WCI   0
SIOUX LOOKOUT  PTCLDY    10  -6  48 SW9       30.19R WCI  -2
TORONTO        CLEAR      7  -4  61 W9        30.58R WCI  -7
BIG TROUT LK   CLOUDY     9   3  78 W9        30.00R WCI  -5
PICKLE LAKE    CLEAR     12  -6  44 SW13      30.05S WCI  -3
DRYDEN         CLOUDY    10  -6  48 SW15G22   30.20S WCI  -6
KENORA         MOCLDY     7  -4  61 SW7       30.24R WCI  -5
$$
                *** MANITOBA***

CITY           SKY/WX    TMP DP  RH WIND       PRES   REMARKS
BRANDON        CLOUDY     5  -2  72 W6        30.19S WCI  -6
DAUPHIN        CLEAR     10  -2  56 SW7       30.16R WCI   0
ISLAND LAKE    PTCLDY     9  -2  61 W9        30.05R WCI  -5
PILOT MOUND      N/A      0  -4  85 S12         N/A  WCI -18
THE PAS        CLOUDY    12   1  62 W7        30.11R WCI   2
THOMPSON       MOCLDY     9   0  66 W5        30.03R WCI   0
WINNIPEG       MOCLDY    10   1  67 SW13      30.28S WCI  -5
LYNN LAKE      CLOUDY     9   1  72 W7        30.02S WCI  -3
CHURCHILL      CRYSTALS  -4  -8  84 SW5       29.97S WCI -15
$$
                ***SASKATCHEWAN***

CITY           SKY/WX    TMP DP  RH WIND       PRES   REMARKS
ESTEVAN        CLOUDY     9   1  72 SE8       30.09S WCI  -4
KINDERSLEY     MOCLDY     7   1  78 NW9       30.13R WCI  -7
LLOYDMINSTER   NOT AVBL
PRINCE ALBERT  PTCLDY     7  -2  66 W5        30.13S WCI  -2
REGINA         MOCLDY     0  -6  78 SE6       30.10S WCI -12
YORKTON        CLEAR      5  -4  66 SW7       30.11R WCI  -7
N. BATTLEFORD  CLEAR      1  -6  71 W5        30.17R WCI  -8
LA RONGE       PTCLDY    10   0  61 W9        30.13R WCI  -2
SASKATOON      MOCLDY     0  -6  78 W5        30.16R WCI -10
SWIFT CURRENT  PTCLDY     7   1  78 NW8       30.05R WCI  -6
$$
NOTE: THESE ARE AUTOMATED STATIONS WITH LIMITED QUALITY CONTROL
      "FAIR" INDICATES FEW OR NO CLOUDS BELOW 12,000 FEET WITH NO
      SIGNIFICANT WEATHER AND/OR OBSTRUCTIONS TO VISIBILITY.
      SKY/WX - SKY CONDITION AND SIGNIFICANT WEATHER.
      TMP - AIR TEMPERATURE.    DP   - DEWPOINT TEMPERATURE.
      RH  - RELATIVE HUMIDITY.  PRES - PRESSURE.
      HX  - HEAT INDEX.         WCI  - WIND CHILL INDEX.
$



USA.gov is the U.S. government's official web portal to all federal, state and local government web resources and services.